Weather History for KNBC - August, 2012

Change the Weather History Date:

Wednesday, August 22, 2012

  Actual Average Record
Temperature  
Mean Temperature 78 °F -  
Max Temperature 87 °F 88 °F 101 °F (1968)
Min Temperature 71 °F 72 °F 59 °F (1930)
Cooling Degree Days 14    
Growing Degree Days 28 (Base 50)    
Moisture  
Dew Point 71 °F    
Average Humidity 81    
Maximum Humidity 94    
Minimum Humidity 55    
Precipitation  
Precipitation 0.00 in - - ()
Sea Level Pressure  
Sea Level Pressure 30.05 in    
Wind  
Wind Speed 4 mph (West)    
Max Wind Speed 8 mph    
Max Gust Speed -    
Visibility 10 miles    
Events      
Averages and records for this station are not official NWS values.
T = Trace of Precipitation, MM = Missing Value Source: NWS Daily Summary

Daily Weather History Graph

Daily Weather History Graph

Search for Another Location

Airport or City:

Trip Planner

Search our weather history database for the weather conditions in past years. The results will help you decide how hot, cold, wet, or windy it might be!

Date:

Astronomy

Aug. 22, 2012 Rise Set
Actual Time 6:51 AM EDT 7:59 PM EDT
Civil Twilight 6:26 AM EDT 8:24 PM EDT
Nautical Twilight 5:55 AM EDT 8:54 PM EDT
Astronomical Twilight 5:24 AM EDT 9:25 PM EDT
Moon 12:05 PM EDT (8/22) 11:04 PM EDT (8/22)
Length of Visible Light 13h 58m
Length of Day
13h 07m
Waxing Crescent, 29% of the Moon is Illuminated
Aug 22
Waxing Crescent
Aug 24
First Quarter
Aug 31
Full
Sep 8
Last Quarter
Sep 15
New

Hourly Weather History & Observations

Time (EDT) Temp. Heat Index Dew Point Humidity Pressure Visibility Wind Dir Wind Speed Gust Speed Precip Events Conditions
12:56 AM 75.0 °F - 72.0 °F 90% 30.03 in 10.0 mi WSW 3.5 mph - N/A   Clear
1:56 AM 75.0 °F - 72.0 °F 90% 30.03 in 10.0 mi WSW 3.5 mph - N/A   Mostly Cloudy
2:10 AM 75.2 °F - 71.6 °F 89% 30.02 in 10.0 mi WSW 4.6 mph - N/A   Overcast
2:19 AM 73.4 °F - 71.6 °F 94% 30.02 in 10.0 mi West 5.8 mph - N/A   Mostly Cloudy
2:56 AM 73.9 °F - 71.1 °F 91% 30.02 in 10.0 mi WSW 6.9 mph - N/A   Clear
3:56 AM 73.0 °F - 70.0 °F 90% 30.01 in 10.0 mi West 3.5 mph - N/A   Clear
4:56 AM 73.0 °F - 70.0 °F 90% 30.02 in 10.0 mi WSW 4.6 mph - N/A   Clear
5:56 AM 71.1 °F - 69.1 °F 93% 30.03 in 10.0 mi West 3.5 mph - N/A   Clear
6:56 AM 72.0 °F - 70.0 °F 93% 30.05 in 10.0 mi Calm Calm - N/A   Mostly Cloudy
7:56 AM 73.0 °F - 70.0 °F 90% 30.05 in 10.0 mi Calm Calm - N/A   Mostly Cloudy
8:56 AM 73.9 °F - 71.1 °F 91% 30.06 in 10.0 mi West 4.6 mph - N/A   Mostly Cloudy
9:03 AM 73.4 °F - 71.6 °F 94% 30.06 in 10.0 mi West 4.6 mph - N/A   Overcast
9:13 AM 75.2 °F - 71.6 °F 89% 30.07 in 10.0 mi Variable 3.5 mph - N/A   Mostly Cloudy
9:56 AM 75.9 °F - 71.1 °F 85% 30.08 in 10.0 mi Variable 3.5 mph - N/A   Mostly Cloudy
10:56 AM 78.1 °F - 71.1 °F 79% 30.09 in 10.0 mi North 3.5 mph - N/A   Mostly Cloudy
11:03 AM 80.6 °F 84.6 °F 71.6 °F 74% 30.08 in 10.0 mi Calm Calm - N/A   Mostly Cloudy
11:56 AM 80.1 °F 83.2 °F 70.0 °F 71% 30.09 in 10.0 mi WNW 8.1 mph - N/A   Unknown
12:56 PM 81.0 °F 84.1 °F 69.1 °F 67% 30.07 in 10.0 mi Variable 4.6 mph - N/A   Partly Cloudy
1:56 PM 82.9 °F 87.0 °F 70.0 °F 65% 30.07 in 10.0 mi WNW 8.1 mph - N/A   Mostly Cloudy
2:56 PM 86.0 °F 89.4 °F 68.0 °F 55% 30.04 in 10.0 mi North 3.5 mph - N/A   Mostly Cloudy
3:56 PM 84.9 °F 88.8 °F 69.1 °F 59% 30.02 in 10.0 mi NNE 4.6 mph - N/A   Mostly Cloudy
4:56 PM 84.9 °F 88.8 °F 69.1 °F 59% 30.03 in 10.0 mi NNW 3.5 mph - N/A   Partly Cloudy
5:56 PM 82.9 °F 86.5 °F 69.1 °F 63% 30.02 in 10.0 mi Calm Calm - N/A   Clear
6:56 PM 81.0 °F 85.2 °F 72.0 °F 74% 30.02 in 10.0 mi South 3.5 mph - N/A   Partly Cloudy
7:56 PM 80.1 °F 83.8 °F 72.0 °F 76% 30.04 in 10.0 mi Calm Calm - N/A   Clear
8:56 PM 78.1 °F - 73.0 °F 84% 30.04 in 10.0 mi SSW 3.5 mph - N/A   Clear
9:56 PM 77.0 °F - 73.0 °F 88% 30.05 in 10.0 mi Calm Calm - N/A   Clear
10:54 PM 77.0 °F - 73.4 °F 89% 30.06 in 10.0 mi ENE 5.8 mph - N/A   Mostly Cloudy
10:56 PM 77.0 °F - 72.0 °F 84% 30.06 in 10.0 mi ENE 5.8 mph - N/A   Mostly Cloudy
11:17 PM 78.8 °F - 71.6 °F 78% 30.07 in 10.0 mi Calm Calm - N/A   Scattered Clouds
11:56 PM 75.9 °F - 73.0 °F 91% 30.06 in 10.0 mi Calm Calm - N/A   Clear